Home > Weather > Ajmān > Past weeks

Flag for United Arab Emirates Weather for the Past 2 Weeks in Ajmān, Ajman, United Arab Emirates

Now
81 °F

Sunny.


Feels Like: 79 °F
Forecast: 66 / 74 °F
Wind: 8 mph from Southwest

Location: Sharjah International Airport

Current Time: Feb 8, 2016 at 2:28:06 PM

Latest Report: Feb 8, 2016 at 2:00 PM


Visibility: 10 mi

Pressure: 30.01 "Hg

Humidity: 20%

Dew point: 36 °F

Location of AjmānLocation

Historic Weather in Ajmān — Graph

°F

Ajmān Temperature Yesterday

Maximum temperature yesterday: 77 °F (at 1:00 PM)
Minimum temperature yesterday: 50 °F (at 6:00 AM)
Average temperature yesterday: 64 °F

High & Low Weather Summary for the Past Weeks

 TemperatureHumidityPressure
High91 °F (Feb 5, 5:00 PM)94% (Feb 7, 6:00 AM)30.27 "Hg (Feb 7, 6:00 AM)
Low50 °F (Feb 6, 4:00 AM)16% (Feb 5, 5:00 PM)29.92 "Hg (Jan 25, 4:00 PM)
Average66 °F58%30.09 "Hg
* Reported Jan 24 1:00 PM — Feb 8 1:00 PM, Ajmān, Weather by CustomWeather, © 2016

Note: Actual official high and low records may vary slightly from our data, if they occured in-between our weather recording intervals... More about our weather records

Advertising

Ajmān Weather History for the Previous 24 Hours

 ConditionsComfort  
Time TempWeatherWind HumidityBarometerVisibility
1:00 PM
Mon, Feb 8
81 °FSunny.8 mph18%30.04 "Hg10 mi
12:00 PM79 °FSunny.5 mph23%30.07 "Hg10 mi
11:00 AM75 °FSunny.7 mph31%30.09 "Hg10 mi
10:00 AM70 °FSunny.8 mph57%30.09 "Hg10 mi
9:00 AM61 °FSunny.5 mph77%30.09 "Hg10 mi
8:00 AM54 °FClear.7 mph94%30.07 "Hg5 mi
7:00 AM52 °FClear.6 mph94%30.04 "Hg5 mi
6:00 AM52 °FClear.8 mph94%30.01 "Hg5 mi
5:00 AM52 °FClear.7 mph94%30.01 "Hg5 mi
4:00 AM54 °FClear.6 mph88%30.04 "Hg5 mi
3:00 AM54 °FClear.5 mph94%30.04 "Hg5 mi
2:00 AM54 °FClear.6 mph88%30.04 "Hg5 mi
1:00 AM57 °FClear.3 mph82%30.04 "Hg5 mi
12:00 AM57 °FClear.2 mph82%30.04 "Hg10 mi
11:00 PM
Sun, Feb 7
59 °FClear.2 mph82%30.04 "Hg10 mi
10:00 PM61 °FClear.No wind77%30.04 "Hg10 mi
9:00 PM64 °FClear.1 mph78%30.04 "Hg10 mi
8:00 PM66 °FClear.3 mph73%30.04 "Hg10 mi
7:00 PM68 °FClear.7 mph64%30.01 "Hg10 mi
6:00 PM70 °FSunny.8 mph60%30.01 "Hg10 mi
5:00 PM73 °FSunny.10 mph50%30.01 "Hg10 mi
4:00 PM75 °FSunny.9 mph34%30.01 "Hg10 mi
3:00 PM77 °FSunny.8 mph26%30.01 "Hg10 mi
2:00 PM77 °FSunny.3 mph28%30.04 "Hg10 mi
Weather by CustomWeather, © 2016

See weather overviewHow to use our weather pages